Regional Weather Roundup
Issued by NWS

Home | Current Version | Previous Version | Text Only | Print | Product List | Glossary Off
Versions: 1 2 3 4 5 6 7 8 9 10 11 12 13 14 15 16 17 18 19 20 21 22 23 24 25 26 27 28 29 30 31 32 33 34 35 36 37 38 39 40 41 42 43 44 45 46 47 48

000
ASUS43 KDMX 291907
RWRIA

WEATHER ROUNDUP FOR IOWA
NATIONAL WEATHER SERVICE DES MOINES IA
200 PM CDT SAT AUG 29 2015

NOTE: "FAIR" INDICATES FEW OR NO CLOUDS BELOW 12,000 FEET WITH NO
SIGNIFICANT WEATHER AND/OR OBSTRUCTIONS TO VISIBILITY.

* - THESE STATIONS ARE NOT NWS STATIONS...THUS NOT UNDER NWS
QUALITY CONTROL.  THEY ALSO DO NOT REPORT WEATHER SUCH
AS PRECIPITATION OR FOG.

IAZ001>003-012>014-020>022-031>034-043>046-292000-
   NORTHWEST IOWA

CITY           SKY/WX    TMP DP  RH WIND       PRES   REMARKS
CARROLL *      CLOUDY    64  63  94 NE5       30.07S
CHEROKEE *     CLOUDY    66  63  88 CALM      30.08S
DENISON *      CLOUDY    66  63  88 CALM      30.06S
LE MARS *      CLOUDY    66  61  82 CALM      30.08F
ORANGE CITY *  PTSUNNY   66  63  88 CALM      30.07F
SHELDON *      MOSUNNY   68  63  83 S7        30.06S
SIOUX CITY     MOSUNNY   69  61  75 VRB3      30.07F
SPENCER        HAZE      69  61  75 S7        30.07F VSB 1/2
STORM LAKE *   MOSUNNY   64  61  88 CALM      30.08F
$$

IAZ055>058-069>071-079>083-090>094-292000-
   SOUTHWEST IOWA

CITY           SKY/WX    TMP DP  RH WIND       PRES   REMARKS
ATLANTIC *     CLOUDY    68  63  83 NE7       30.06S
AUDUBON *      CLOUDY    64  61  88 N5        30.08S
CLARINDA *     CLOUDY    68  63  83 CALM      30.07F
COUNCIL BLFS *   N/A     66  63  88 VRB6G12   30.08S
CRESTON *      CLOUDY    68  64  88 NE5       30.06F
HARLAN  *      CLOUDY    68 -38   1 N8        30.10S
LAMONI         CLOUDY    76  66  71 NW3       30.02F
RED OAK *      CLOUDY    68  64  88 CALM      30.06F
SHENANDOAH *   CLOUDY    66  63  88 CALM      30.07F
$$

IAZ047>049-059>061-072>074-084-292000-
   CENTRAL IOWA

CITY           SKY/WX    TMP DP  RH WIND       PRES   REMARKS
AMES           CLOUDY    70  64  81 NE6       30.04S
ANKENY *       CLOUDY    72  66  83 N7        30.04R
CHARITON *     CLOUDY    72  66  83 N6        30.03S
DES MOINES     CLOUDY    71  63  75 N7        30.03S
GRINNELL*      CLOUDY    72  66  83 N6        30.03S
KNOXVILLE *    CLOUDY    70  64  83 N6        30.01F
MARSHALLTOWN   CLOUDY    69  64  84 NE5       30.03F
PELLA *        CLOUDY    72  68  88 N5        30.03S
PERRY *        CLOUDY    68  64  88 N7        30.05F
$$

IAZ004>006-015-016-023>025-035-036-292000-
   NORTH CENTRAL IOWA

CITY           SKY/WX    TMP DP  RH WIND       PRES   REMARKS
ALGONA *       PTSUNNY   64  61  88 CALM      30.08S
CLARION *      CLOUDY    70  63  78 VRB6      30.06S
ESTHERVILLE    PTSUNNY   69  63  81 VRB5      30.06F
FORT DODGE *   CLOUDY    64  61  88 NW3       30.07F
MASON CITY     MOSUNNY   70  63  78 CALM      30.07S
FOREST CITY *  CLOUDY    68  63  83 CALM      30.06S
IOWA FALLS *   CLOUDY    70  63  78 NE3       30.06S
$$

IAZ007>011-017>019-026>030-037>042-050>054-066-292000-
   NORTHEAST IOWA

CITY           SKY/WX    TMP DP  RH WIND       PRES   REMARKS
CEDAR RAPIDS   CLOUDY    73  67  81 CALM      30.00F
CHARLES CITY * PTSUNNY   72  66  83 VRB5      30.05S
CLINTON *      CLOUDY    72  66  83 CALM      30.02F
DECORAH *      CLOUDY    68  63  83 CALM      30.04F
DUBUQUE        CLOUDY    72  65  78 N8        30.03R
MONTICELLO *   CLOUDY    72  66  83 NE6       30.01S
OELWEIN *      CLOUDY    70  64  83 NE7       30.04F
WATERLOO       CLOUDY    73  64  73 E8        30.02F
$$

IAZ064-065-067-068-078-292000-
   EAST CENTRAL IOWA

CITY           SKY/WX    TMP DP  RH WIND       PRES   REMARKS
DAVENPORT      CLOUDY    73  67  81 N3        30.00S
IOWA CITY      CLOUDY    75  68  78 N3        30.01S
MT. PLEASANT * CLOUDY    79  64  61 CALM      30.00S HX  81
MUSCATINE *    CLOUDY    75  68  78 VRB3      30.00S
QUAD CITIES    CLOUDY    74  67  78 CALM      29.99F
$$

IAZ062-063-075>077-085>089-095>099-292000-
   SOUTHEAST IOWA

CITY           SKY/WX    TMP DP  RH WIND       PRES   REMARKS
BURLINGTON     CLOUDY    78  69  73 S6        29.99F HX  80
FAIRFIELD *    CLOUDY    75  68  78 N3        30.00S
FORT MADISON * CLOUDY    77  70  78 SE3       30.00F
KEOKUK *       CLOUDY    77  68  73 CALM      29.99S
OSKALOOSA *    CLOUDY    72  66  83 N3        30.02S
CENTERVILLE *  MOSUNNY   73  68  83 N6        30.03F
OTTUMWA        CLOUDY    74  69  85 N8        30.00R
WASHINGTON *     N/A    N/A N/A N/A MISG        N/A
$$

ABBREVIATIONS USED IN REMARKS
   TC - TEMPERATURES IN CELSIUS
  WCI - WIND CHILL INDEX
   HX - HEAT INDEX
  VSB - VISIBILITY
$$



USA.gov is the U.S. government's official web portal to all federal, state and local government web resources and services.